Regional Weather Roundup
Issued by NWS

Home | Current Version | Previous Version | Text Only | Print | Product List | Glossary Off
Versions: 1 2 3 4 5 6 7 8 9 10 11 12 13 14 15 16 17 18 19 20 21 22 23 24 25 26 27 28 29 30 31 32 33 34 35 36 37 38 39 40 41 42 43 44 45 46 47 48 49 50

000
ASUS43 KMKX 200411
RWRWI

WISCONSIN REGIONAL WEATHER ROUNDUP
NATIONAL WEATHER SERVICE MILWAUKEE/SULLIVAN WI
1000 PM CST THU JAN 19 2017

NOTE: "FAIR" INDICATES FEW OR NO CLOUDS BELOW 12,000 FEET WITH NO
SIGNIFICANT WEATHER AND/OR OBSTRUCTIONS TO VISIBILITY.

WIZ001-002-006>008-014>016-023>028-200500-
NORTHWEST WISCONSIN

CITY           SKY/WX    TMP DP  RH WIND       PRES   REMARKS
SUPERIOR ARPT  CLOUDY    30  30 100 CALM      29.74S FOG
ASHLAND        CLEAR     33  29  85 W3        29.75F
HAYWARD        MOCLDY    30  28  92 CALM      29.75F
SIREN          CLOUDY    37  32  82 CALM      29.72F
CUMBERLAND     CLOUDY    34  32  93 SE3       29.71F
RICE LAKE      CLOUDY    35  32  89 CALM      29.74F
CHETEK         CLOUDY    35  32  90 CALM      29.74F
LADYSMITH      CLOUDY    35  32  90 SE7       29.76S WCI  29
EAU CLAIRE     CLOUDY    36  33  89 SE7       29.74S WCI  30
MENOMONIE        N/A    N/A N/A N/A MISG        N/A
NEW RICHMOND   CLOUDY    36  31  84 CALM      29.70F
OSCEOLA        CLOUDY    36  32  87 CALM      29.74F
$$

WIZ003>005-009-010-017-018-200500-
NORTH CENTRAL WISCONSIN

CITY           SKY/WX    TMP DP  RH WIND       PRES   REMARKS
MANITOWISH WTR CLOUDY    29  29 100 CALM      29.74  FOG
ARBOR VITAE    PTCLDY    29  28  95 SE3       29.76F FOG
WOODRUFF       PTCLDY    29  28  95 SE3       29.76F FOG
RHINELANDER    MOCLDY    29  29 100 E5        29.76F FOG     WCI  24
EAGLE RIVER    CLOUDY    27  27 100 CALM      29.76S FOG
LAND O LAKES   CLOUDY    27  27  99 CALM      29.78S
PHILLIPS       CLOUDY    31  29  94 CALM      29.74F
TOMAHAWK       FOG       30  30  98 CALM      29.77S VSB 1/2
MEDFORD        CLOUDY    31  31  99 SE3       29.75S FOG
MERRILL        FOG       31  31 100 CALM        N/A  VSB 1/2
$$

WIZ029-030-035-036-043>047-200500-
CENTRAL WISCONSIN

CITY           SKY/WX    TMP DP  RH WIND       PRES   REMARKS
WAUSAU         CLOUDY    31  30  96 SE5       29.76F FOG     WCI  26
MOSINEE        CLOUDY    30  30 100 SE5       29.79S FOG     WCI  25
MARSHFIELD     CLOUDY    32  31  96 SE5       29.76S FOG     WCI  27
STEVENS POINT  CLOUDY    30  30 100 E6        29.80R FOG     WCI  24
WAUPACA        FOG       33  32  95 CALM      29.82R VSB 1/2
WAUTOMA        MIX PCPN  32  32 100 NE3       29.81F FOG
WISC RAPIDS    CLOUDY    34  33  96 SE3       29.80R
CAMP DOUGLAS   LGT RAIN  34  33  97 E5        29.77F FOG     WCI  30
$$

WIZ011>013-019>022-031-037>040-048>050-200500-
NORTHEAST WISCONSIN

CITY           SKY/WX    TMP DP  RH WIND       PRES   REMARKS
ANTIGO         CLOUDY    30  30 100 SE6       29.78S WCI  24
SHAWANO        CLOUDY    32  32  97 NE3       29.82F FOG
OCONTO         CLOUDY    32  31  98 CALM      29.83F VSB 1/2
STURGEON BAY   FOG       32  31  96 E3        29.84F VSB 1/4
GREEN BAY      CLOUDY    34  33  96 E3        29.82F FOG
MANITOWOC      FOG       33  32  96 CALM      29.83F VSB 1/4
APPLETON       FOG       30  30 100 CALM      29.80S VSB 1/2
CLINTONVILLE   FOG       32  32 100 CALM      29.81F VSB 1/2
OSHKOSH        CLOUDY    33  32  96 CALM      29.80F FOG
$$

WIZ032>034-041-042-053>061-200500-
SOUTHWEST WISCONSIN

CITY           SKY/WX    TMP DP  RH WIND       PRES   REMARKS
LA CROSSE      LGT RAIN  39  36  89 E3        29.74F FOG
SPARTA         RAIN      34  34 100 E3        29.76F
VIROQUA        CLOUDY    34  34 100 E6        29.72F WCI  29
BOSCOBEL       LGT RAIN  36  34  92 NE5       29.74F FOG     WCI  32
PRAIRIE DU CHI CLOUDY    36  35  96 E6        29.72F FOG     WCI  31
PLATTEVILLE    CLOUDY    36  36 100 E13       29.71F WCI  27
$$

WIZ056-057-062-063-064-067-068-200500-
SOUTH CENTRAL WISCONSIN

CITY           SKY/WX    TMP DP  RH WIND       PRES   REMARKS
REEDSBURG      RAIN      34  34 100 E3        29.77S
BARABOO/DELLS  RAIN      33  33  99 E6        29.77S VSB 3/4 WCI  28
LONE ROCK      RAIN      35  34  96 E9        29.76F FOG     WCI  28
MINERAL POINT  LGT RAIN  36  36 100 E8        29.73F WCI  29
MADISON        LGT RAIN  35  34  96 E5        29.79F FOG     WCI  31
MIDDLETON      CLOUDY    36  36 100 E6        29.78S WCI  31
WATERTOWN      DRIZZLE   35  35 100 CALM      29.78F
MONROE         LGT RAIN  34  34 100 E8        29.74F VSB 1/4 WCI  27
JANESVILLE     LGT RAIN  36  36 100 E3        29.77F
$$

WIZ051-052-058>065-066-070>072-200500-
SOUTHEAST WISCONSIN

CITY           SKY/WX    TMP DP  RH WIND       PRES   REMARKS
MILWAUKEE      LGT RAIN  38  36  92 E7        29.80F VSB 1   WCI  33
WAUKESHA       LGT RAIN  34  34 100 E3        29.80F
MILWAUKEE/TIMM DRZL/FOG  36  34  93 E5        29.81F VSB 1   WCI  32
RACINE         LGT RAIN  38  36  92 E8        29.80F FOG     WCI  32
KENOSHA        LGT RAIN  38  36  92 E8        29.78F FOG     WCI  32
FOND DU LAC    LGT RAIN  33  31  92 CALM      29.81S FOG
SHEBOYGAN      FOG       33  31  92 NE5       29.82F VSB 1/4 WCI  29
WEST BEND      FOG       34  34 100 E3        29.80F VSB<1/4
JUNEAU         DRIZZLE   34  33  97 E6        29.80F WCI  29
$$

LSZ147-162-200500-
LAKE SUPERIOR

STATION/POSITION TIME  TEMP    WIND        PRES    WAVE
                       AIR SEA DIR/SP/G            HT/PER
                 (UTC) (F)     (DEG/KT/KT) (MB)    (FT/S)
DEVILS ISLAND    0300   38     240/  2/  3 1008.2F
PORT WING        0330   38     170/  6/  8 1007.5F
SAXON HARBOR     0340   29     190/  2/  2 1007.5F
$$

LMZ867-665-643>646-200500-
LAKE MICHIGAN

STATION/POSITION TIME  TEMP    WIND        PRES    WAVE
                       AIR SEA DIR/SP/G            HT/PER
                 (UTC) (F)     (DEG/KT/KT) (MB)    (FT/S)
NORTHPORT PIER   0340   33     150/  3/  6 1010.8F
SISTER BAY       0250   32        CALM       N/A
KEWAUNEE LAKESHO 0348   33      CALM  /  1 1010.0F
SHEBOYGAN LAKESH 0400   36     120/  6/  6 1010.3F
PORT WASHINGTON  0330   36      90/  5/  5 1010.8F
MILWAUKEE LAKESH 0350   36      40/  7/  7   N/A
KENOSHA   LAKESH 0400   35     100/  7/  7 1008.8
$$

TC  - TEMPERATURE IN CELSIUS
VSB - VISIBILITY IN STATUTE MILES
WCI - WIND CHILL INDEX
HX  - HEAT INDEX




USA.gov is the U.S. government's official web portal to all federal, state and local government web resources and services.